Glasgow, MT

2:55 PM MST on November 18, 2017 (GMT -0700)
Wokal-Glasgow International

Weather History for KGGW - April, 2012

Change the Weather History Date:

Sunday, April 29, 2012

  Actual Average Record
Temperature  
Mean Temperature 44 °F 50 °F  
Max Temperature 50 °F 63 °F 90 °F (1939)
Min Temperature 38 °F 36 °F 7 °F (1954)
Degree Days  
Heating Degree Days 21 15  
Month to date heating degree days 513 587  
Since 1 July heating degree days 6713 7991  
Cooling Degree Days 0 0  
Month to date cooling degree days 3 0  
Year to date cooling degree days 3 0  
Moisture  
Dew Point 37 °F    
Average Humidity 83    
Maximum Humidity 100    
Minimum Humidity 66    
Precipitation  
Precipitation T in 0.04 in 0.68 in (1953)
Month to date precipitation 1.35 0.81  
Year to date precipitation 2.65 1.86  
Snow  
Snow 0.00 in 0.10 in 3.00 in (1967)
Month to date snowfall 0.1 1.9  
Since 1 July snowfall 25.7 33.6  
Snow Depth 0.00 in    
Sea Level Pressure  
Sea Level Pressure 29.92 in    
Wind  
Wind Speed 7 mph (WNW)    
Max Wind Speed 15 mph    
Max Gust Speed 18 mph    
Visibility 10 miles    
Events      
T = Trace of Precipitation, MM = Missing Value Source: NWS Daily Summary

Daily Weather History Graph

Daily Weather History Graph

Search for Another Location

Airport or City:

Trip Planner

Search our weather history database for the weather conditions in past years. The results will help you decide how hot, cold, wet, or windy it might be!

Date:

Astronomy

Apr. 29, 2012 Rise Set
Actual Time 5:50 AM MDT 8:18 PM MDT
Civil Twilight 5:15 AM MDT 8:53 PM MDT
Nautical Twilight 4:31 AM MDT 9:36 PM MDT
Astronomical Twilight 3:41 AM MDT 10:27 PM MDT
Moon 12:41 PM MDT (4/29) 2:16 AM MDT (4/29)
Length of Visible Light 15h 37m
Length of Day
14h 28m
First Quarter, 54% of the Moon is Illuminated
Apr 29
First Quarter
May 5
Full
May 12
Last Quarter
May 20
New
May 28
First Quarter

Hourly Weather History & Observations

Time (MDT) Temp. Windchill Dew Point Humidity Pressure Visibility Wind Dir Wind Speed Gust Speed Precip Events Conditions
12:53 AM 39.9 °F 36.7 °F 37.0 °F 89% 29.97 in 10.0 mi North 4.6 mph - N/A   Overcast
1:53 AM 39.9 °F 34.5 °F 37.0 °F 89% 29.96 in 10.0 mi NE 8.1 mph - N/A   Overcast
2:53 AM 39.0 °F 34.8 °F 37.0 °F 93% 29.95 in 10.0 mi NE 5.8 mph - N/A   Overcast
3:53 AM 39.0 °F 36.8 °F 37.0 °F 93% 29.95 in 10.0 mi North 3.5 mph - N/A   Overcast
4:53 AM 39.0 °F - 37.0 °F 93% 29.94 in 10.0 mi Calm Calm - N/A   Overcast
5:18 AM 39.2 °F 37.0 °F 37.4 °F 93% 29.89 in 10.0 mi NW 3.5 mph - N/A   Overcast
5:36 AM 37.4 °F 33.8 °F 37.4 °F 100% 29.88 in 10.0 mi WNW 4.6 mph - N/A   Overcast
5:53 AM 37.9 °F 34.4 °F 37.0 °F 97% 29.94 in 10.0 mi West 4.6 mph - N/A   Overcast
6:53 AM 39.0 °F 34.8 °F 37.0 °F 93% 29.94 in 10.0 mi NNW 5.8 mph - N/A   Overcast
7:48 AM 39.2 °F 35.9 °F 37.4 °F 93% 29.88 in 10.0 mi NW 4.6 mph - N/A   Mostly Cloudy
7:53 AM 39.9 °F 36.7 °F 37.0 °F 89% 29.94 in 10.0 mi NW 4.6 mph - N/A   Mostly Cloudy
8:21 AM 41.0 °F 38.0 °F 37.4 °F 87% 29.89 in 10.0 mi WNW 4.6 mph - N/A   Overcast
8:39 AM 41.0 °F 37.1 °F 37.4 °F 87% 29.89 in 10.0 mi NW 5.8 mph - N/A   Overcast
8:53 AM 41.0 °F 38.0 °F 37.0 °F 86% 29.94 in 10.0 mi WNW 4.6 mph - N/A   Overcast
9:53 AM 42.1 °F 37.7 °F 37.0 °F 82% 29.95 in 10.0 mi West 6.9 mph - N/A   Overcast
10:25 AM 42.8 °F 39.3 °F 35.6 °F 76% 29.90 in 10.0 mi WNW 5.8 mph - N/A   Overcast
10:43 AM 42.8 °F 39.3 °F 37.4 °F 81% 29.89 in 10.0 mi NW 5.8 mph - N/A   Overcast
10:53 AM 43.0 °F 39.5 °F 37.0 °F 80% 29.95 in 10.0 mi NW 5.8 mph - N/A   Overcast
11:53 AM 44.1 °F 38.6 °F 36.0 °F 73% 29.95 in 10.0 mi WNW 10.4 mph - N/A   Overcast
12:43 PM 46.4 °F 40.4 °F 37.4 °F 71% 29.89 in 10.0 mi West 13.8 mph - N/A   Overcast
12:53 PM 45.0 °F 39.3 °F 37.0 °F 74% 29.94 in 10.0 mi WNW 11.5 mph - N/A   Overcast
1:53 PM 46.0 °F 41.9 °F 37.0 °F 71% 29.93 in 10.0 mi WNW 8.1 mph - N/A   Overcast
2:53 PM 46.9 °F - 39.0 °F 74% 29.92 in 10.0 mi West 10.4 mph - N/A   Overcast
3:27 PM 46.4 °F 40.7 °F 37.4 °F 71% 29.87 in 10.0 mi WNW 12.7 mph - N/A   Overcast
3:53 PM 46.9 °F - 37.9 °F 71% 29.93 in 10.0 mi NW 11.5 mph - N/A   Overcast
4:53 PM 48.0 °F - 37.9 °F 68% 29.92 in 10.0 mi WNW 6.9 mph - N/A   Overcast
5:53 PM 48.9 °F - 37.9 °F 66% 29.92 in 10.0 mi West 10.4 mph - N/A   Overcast
6:53 PM 46.9 °F - 39.0 °F 74% 29.92 in 10.0 mi WSW 4.6 mph - 0.00 in   Mostly Cloudy
7:53 PM 46.4 °F 45.2 °F 39.2 °F 76% 29.87 in 10.0 mi South 3.5 mph - N/A   Partly Cloudy
8:53 PM 42.8 °F 40.1 °F 37.4 °F 81% 29.88 in 10.0 mi South 4.6 mph - N/A   Clear
9:53 PM 42.1 °F 37.7 °F 37.0 °F 82% 29.93 in 10.0 mi SSE 6.9 mph - N/A   Clear
10:53 PM 41.0 °F 36.4 °F 37.9 °F 89% 29.91 in 10.0 mi South 6.9 mph - N/A   Clear
11:53 PM 42.1 °F 37.7 °F 37.0 °F 82% 29.90 in 10.0 mi SSW 6.9 mph - N/A   Clear